Regional Weather Roundup
Issued by NWS Newport/Morehead, NC

Current Version | Previous Version | Text Only | Print | Product List | Glossary On
Versions: 1 2 3 4 5 6 7 8 9 10 11 12 13 14 15 16 17 18 19 20 21 22 23 24 25 26 27 28 29 30 31 32 33 34 35 36 37 38 39 40 41 42 43 44 45 46 47 48 49 50
000
ASUS42 KMHX 220210
RWRMHX
WEATHER ROUNDUP FOR EASTERN NORTH CAROLINA
NATIONAL WEATHER SERVICE NEWPORT/MOREHEAD CITY NC
900 PM EST FRI NOV 21 2014

NOTE: "FAIR" INDICATES FEW OR NO CLOUDS BELOW 12,000 FEET
WITH NO SIGNIFICANT WEATHER AND/OR OBSTRUCTIONS TO VISIBILITY

NCZ015>017-031-032-045>047-102-103-220300-
NORTH COAST

CITY           SKY/WX    TMP DP  RH WIND       PRES   REMARKS
EDENTON          N/A     30  19  63 CALM      30.56S
ELIZABETH CITY CLEAR     38  19  46 N6        30.57R
KITTY HAWK     CLEAR     37  23  55 NW5       30.53S
MANTEO         CLEAR     38  22  52 NW5       30.55S

$$

NCZ045>047-081-094-103-104-220300-
CENTRAL COAST

CITY           SKY/WX    TMP DP  RH WIND       PRES   REMARKS
FRISCO         CLEAR     40  24  53 NE8G17    30.54R
SWANQUARTER      N/A     32 N/A N/A NE3       30.50S

$$

NCZ095-097-098-100-101-220300-
SOUTHERN COAST

CITY           SKY/WX    TMP DP  RH WIND       PRES   REMARKS
BEAUFORT       CLEAR     37  23  56 NE5       30.54R
CEDAR ISLAND     N/A     43 N/A N/A N17       30.56S
JACKSONVILLE   CLEAR     37  17  44 N8        30.54R
PINEY ISLAND   CLEAR     43  21  41 NE12      30.53R
WILMINGTON     CLEAR     37  18  46 NE10      30.52R


$$

NCZ011>013-027>030-043-044-078>080-089-090>093-098-220300-
COASTAL PLAIN

CITY           SKY/WX    TMP DP  RH WIND       PRES   REMARKS
AHOSKIE        CLEAR     27  17  65 CALM      30.57R
CLINTON        CLEAR     38  15  40 CALM      30.54R
ELIZABETHTOWN  CLEAR     38  16  41 CALM      30.52R
GOLDSBORO      CLEAR     33  17  53 NE1       30.53R
GREENVILLE     CLEAR     30  18  59 CALM      30.55R
HAVELOCK       CLEAR     38  23  55 NE5       30.55R
KENANSVILLE    CLEAR     32  16  52 CALM      30.55R
KINSTON        CLEAR     28  18  64 N3        30.56R
NEW BERN       CLEAR     37  20  50 NE6       30.56R
RICHLANDS      CLEAR     30  21  69 CALM      30.55R
ROCKY MOUNT    CLEAR     28  18  66 CALM      30.55R
WASHINGTON     CLEAR     32  16  51 NE3       30.56R
WHITEVILLE     CLEAR     41  18  38 NE8       30.52R

$$

AMZ130-135-150-152-154-156-158-170-250-252-270-ANZ085-086-088-633-658-670-220300-
MARINE OBSERVATIONS

STATION/POSITION TIME  TEMP    WIND        PRES    WAVE   SWELL
                       AIR SEA DIR/SP/G            HT/PER HT/PER
                 (UTC) (F)     (DEG/KT/KT) (MB)    (FT/S) (FT/S)
CHESAPEAKE LIGHT 0100   39     350/ 18/ 20 1034.6
64 E VA BEACH    0200   42 60  360/ 19/ 23 1033.1    7/ 7   2/11
DUCK             0200   40 55  320/ 11/ 14 1033.6
2 E DUCK         0200      56                N/A     5/ 7
10 NE DUCK       0100      58                N/A     5/ 6
OREGON INLET     0200   40 50  340/  8/ 12 1034.2
13E OREGON INLT  0200      62                N/A     6/ 8
HATTERAS CG      0200      52   10/ 15/ 19 1034.1
DIAMOND BUOY     0200   45     360/ 17/ 21 1033.3    5/ 7
17 S OCRACOKE    NOT AVBL
CAPE LOOKOUT     0100   43      20/ 11/ 13 1033.4
BEAUFORT LAB     0200   40 53   30/  5/  7 1033.0
30 SE NEW RIVER  0200   48 69   30/ 16/ 21 1032.6    3/ 4   2/ 8
5 SE WRIGHTSVLE  0100   47 60   30/ 19/ 21 1032.5
225 S CAPE HAT   0122   62 73   10/ 16/ 19 1029.9    5/ 7
41 SE CHARLESTON 0200   61 75   50/ 17/ 21 1030.0    4/ 6   2/ 9

$$


USA.gov is the U.S. government's official web portal to all federal, state and local government web resources and services.